View from above orbital plane
|
View from above satellite
|
Ground track
|
The orbit data is extracted from the following two-line orbital elements,
1 32955U 08025C 21026.27186187 .00000037 00000-0 19530-3 0 9991
2 32955 82.5032 137.4826 0020126 281.0306 78.8531 12.43314456575448
Epoch (UTC): | 26 January 2021 06:31:28 |
Eccentricity: | 0.0020126 |
inclination: | 82.5032° |
perigee height: | 1477 km |
apogee height: | 1508 km |
right ascension of ascending node: | 137.4826° |
argument of perigee: | 281.0306° |
revolutions per day: | 12.43314456 |
mean anomaly at epoch: | 78.8531° |
orbit number at epoch: | 57544 |
The dashed part of the orbit path shows where the satellite is in the earth's shadow,
|
|